Regional Weather Roundup
Issued by NWS Newport/Morehead, NC

Current Version | Previous Version | Text Only | Print | Product List | Glossary On
Versions: 1 2 3 4 5 6 7 8 9 10 11 12 13 14 15 16 17 18 19 20 21 22 23 24 25 26 27 28 29 30 31 32 33 34 35 36 37 38 39 40 41 42 43 44 45 46 47 48 49 50
000 ASUS42 KMHX 180525 RWRMHX WEATHER ROUNDUP FOR EASTERN NORTH CAROLINA NATIONAL WEATHER SERVICE NEWPORT/MOREHEAD CITY NC 1200 AM EST WED JAN 18 2017 NOTE: "FAIR" INDICATES FEW OR NO CLOUDS BELOW 12,000 FEET WITH NO SIGNIFICANT WEATHER AND/OR OBSTRUCTIONS TO VISIBILITY NCZ015>017-031-032-045>047-102-103-180600- NORTH COAST CITY SKY/WX TMP DP RH WIND PRES REMARKS EDENTON MOCLDY 60 55 85 CALM 30.02F ELIZABETH CITY CLOUDY 57 55 93 S12 30.01F KITTY HAWK NOT AVBL MANTEO CLOUDY 55 55 100 SW10 30.03F $$ NCZ045>047-081-094-103-104-180600- CENTRAL COAST CITY SKY/WX TMP DP RH WIND PRES REMARKS FRISCO CLOUDY 60 56 86 SW7 30.05F FOG $$ NCZ095-097-098-100-101-180600- SOUTHERN COAST CITY SKY/WX TMP DP RH WIND PRES REMARKS BEAUFORT PTCLDY 62 59 90 SW14 30.08F CEDAR ISLAND NOT AVBL JACKSONVILLE CLOUDY 62 58 86 SW7 30.07F PINEY ISLAND PTCLDY N/A N/A N/A S14 30.04F WILMINGTON PTCLDY 61 59 93 SW10 30.09F $$ NCZ011>013-027>030-043-044-078>080-089-090>093-098-180600- COASTAL PLAIN CITY SKY/WX TMP DP RH WIND PRES REMARKS AHOSKIE PTCLDY 57 55 92 S5 29.99F CLINTON CLOUDY 60 58 92 S6 30.05F ELIZABETHTOWN MOCLDY 61 59 92 S6 30.06F GOLDSBORO CLOUDY 62 61 97 SW13 30.01F GREENVILLE CLOUDY 63 59 88 SW12 30.03F HAVELOCK PTCLDY 62 58 86 SW13 30.07F KENANSVILLE CLOUDY 59 57 94 S3 30.05F KINSTON CLOUDY 62 57 84 SW12 30.04F NEW BERN MOCLDY 60 56 86 SW12 30.07F RICHLANDS PTCLDY 59 57 93 S9 30.07F ROCKY MOUNT CLOUDY 60 57 89 S6 30.01F WASHINGTON CLOUDY 61 56 84 SW9 30.03F WHITEVILLE PTCLDY 57 56 94 SW3 30.09F $$ AMZ130-135-150-152-154-156-158-170-250-252-270-ANZ085-086-088-633-658-670-180600- MARINE OBSERVATIONS STATION/POSITION TIME TEMP WIND PRES WAVE SWELL AIR SEA DIR/SP/G HT/PER HT/PER (UTC) (F) (DEG/KT/KT) (MB) (FT/S) (FT/S) CHESAPEAKE LIGHT NOT AVBL 64 E VA BEACH 0450 59 57 210/ 16/ 17 1015.5 4/ 4 2/ 8 DUCK 0500 57 44 210/ 11/ 14 1015.7 2 E DUCK 0500 45 N/A 2/ 9 OREGON INLET 0454 52 50 200/ 13/ 15 1016.5 13E OREGON INLT NOT AVBL HATTERAS CG 0500 63 54 200/ 12/ 17 1016.3 DIAMOND BUOY 0450 71 73 240/ 19/ 23 1018.2 4/ 5 2/ 8 CAPE LOOKOUT 0500 64 220/ 12/ 18 1018.0 BEAUFORT LAB 0500 61 50 230/ 5/ 9 1017.4 30 SE NEW RVR IN 0508 62 62 240/ 12/ 16 1018.9 30 SE NEW RVR IN 0513 62 N/A 3/ 4 27 SE WRIGHTSVLE 0508 68 69 220/ 19/ 25 1018.5 5 SE WRIGHTSVLE 0508 58 220/ 12/ 17 1018.8 225 S CAPE HAT 0450 72 72 210/ 14/ 16 1022.5 3/ 9 2/ 9 41 SE CHARLESTON 0450 71 70 220/ 14/ 16 1020.6 3/ 9 2/ 9 $$

USA.gov is the U.S. government's official web portal to all federal, state and local government web resources and services.